Location: Asheville, NC
(35.6000°N, 82.5500°W)
Time: 12:01:34

RS-15 - Pass Details

Date: 16 March 2018
Orbit: 1888 x 2157 km, 64.8° (Epoch: 23 March)

Event Time Altitude Azimuth Distance (km) Brightness Sun altitude
Exits shadow 02:59:25 25° 319° (NW) 3,529 9.3 -51.3°
Maximum altitude 03:00:12 26° 325° (NW) 3,516 9.3 -51.2°
Drops below altitude 10° 03:09:36 10° 18° (NNE) 4,552 10.4 -50.1°
Sets 03:14:02 0° 31° (NNE) 5,513 11.0 -49.6°
